Regional Weather Roundup
Issued by NWS

Home | Current Version | Previous Version | Graphics & Text | Print | Product List | Glossary On
Versions: 1 2 3 4 5 6 7 8 9 10 11 12 13 14 15 16 17 18 19 20 21 22 23 24 25 26 27 28 29 30 31 32 33 34 35 36 37 38 39 40 41 42 43 44 45 46 47 48 49 50
000
ASUS43 KLMK 050810
RWRKY
KENTUCKY REGIONAL WEATHER ROUNDUP
NATIONAL WEATHER SERVICE LOUISVILLE KY
400 AM EDT WED AUG 05 2015

NOTE "FAIR" INDICATES FEW OR NO CLOUDS BELOW 12,000 FEET
WITH NO SIGNIFICANT WEATHER AND/OR OBSTRUCTIONS TO VISIBILITY.

KYZ001>023-026-027-061>063-070>075-050900-
WESTERN AND SOUTH CENTRAL KENTUCKY

CITY           SKY/WX    TMP DP  RH WIND       PRES   REMARKS
PADUCAH        CLOUDY    74  70  87 CALM      29.97S
HENDERSON      MOCLDY    70  66  88 E3        29.98S
OWENSBORO      CLOUDY    72  69  90 CALM      30.00S
HOPKINSVILLE   MOCLDY    75  67  78 CALM      29.99S
BOWLING GREEN  MOCLDY    72  68  87 CALM      30.01S
GLASGOW        PTCLDY    69  69 100 CALM      30.01S
$$

KYZ024-025-028>034-038-045-046-053-050900-
NORTH CENTRAL KENTUCKY

CITY           SKY/WX    TMP DP  RH WIND       PRES   REMARKS
LOUISVILLE/SDF MOCLDY    71  68  90 NE3       30.01S FOG
LOUISVILLE/LOU MOCLDY    70  68  93 CALM      30.03R FOG
FORT KNOX      CLOUDY    66  66 100 CALM      30.01R FOG
$$

KYZ035>037-039>044-047>052-055>060-089>105-050900-
NORTHEAST KENTUCKY

CITY           SKY/WX    TMP DP  RH WIND       PRES   REMARKS
LEXINGTON      MOCLDY    66  64  93 N5        30.05R
COVINGTON      CLOUDY    69  62  78 CALM      30.03S
FRANKFORT      MOCLDY    67  65  93 CALM      30.03R
$$

KYZ054-064>069-076>088-106>120-050900-
SOUTHEAST KENTUCKY

CITY           SKY/WX    TMP DP  RH WIND       PRES   REMARKS
JACKSON        FOG       67  66  97 CALM      30.04S VSB 1/4
LONDON         CLOUDY    69  64  84 CALM      30.04F HAZE
SOMERSET       MOCLDY    64  64 100 CALM      30.05R
MIDDLESBORO    MOCLDY    67  67  97 CALM      30.06S
MONTICELLO     PTSUNNY   69  68  97 CALM      30.06S
$$



USA.gov is the U.S. government's official web portal to all federal, state and local government web resources and services.